Regional Weather Roundup
Issued by NWS

Home | Current Version | Previous Version | Text Only | Print | Product List | Glossary Off
Versions: 1 2 3 4 5 6 7 8 9 10 11 12 13 14 15 16 17 18 19 20 21 22 23 24 25 26 27 28 29 30 31 32 33 34 35 36 37 38 39 40 41 42 43 44 45 46 47 48 49 50

981
ASUS45 KSLC 152210
RWRUT

UTAH REGIONAL WEATHER ROUNDUP
NATIONAL WEATHER SERVICE SALT LAKE CITY UT
300 PM MST MON JAN 15 2018

UTZ001>011-023>025-152300-

NORTHERN UTAH

CITY           SKY/WX    TMP DP  RH WIND       PRES   REMARKS
BRIGHAM CITY   SUNNY     44  30  57 CALM      30.30S
HILL AFB       SUNNY     44  28  53 NW5       30.28S
LOGAN          SUNNY     42  28  57 W3        30.30F
OGDEN          SUNNY     46  29  51 NW5       30.28S
SALT LAKE CITY PTSUNNY   48  32  53 NW6       30.29R
TOOELE VALLEY  SUNNY     41  34  75 N6        30.30S
WENDOVER       SUNNY     43  29  57 E5        30.29S
HEBER CITY       N/A     45  27  49 CALM      30.25S
WEST JORDAN    SUNNY     43  32  63 N6        30.29R

$$

UTZ011>015-024>027-152300-

CENTRAL/NORTHEAST UTAH

CITY           SKY/WX    TMP DP  RH WIND       PRES   REMARKS
PROVO AIRPORT  SUNNY     40  27  59 SW3       30.29S
MOAB/CANYONLAN SUNNY     46  30  53 NW7       30.22S
DELTA          SUNNY     45  30  57 CALM      30.26F
PRICE          SUNNY     47  27  45 VRB6      30.23R
ROOSEVELT      SUNNY     41  23  48 CALM      30.36S
VERNAL         CLOUDY    41  22  46 E8        30.34R

$$

UTZ013>016-019>022-027-152300-

SOUTHERN UTAH

CITY           SKY/WX    TMP DP  RH WIND       PRES   REMARKS
BRYCE CANYON   SUNNY     49  26  41 NE5       30.24R
CEDAR CITY     SUNNY     49  29  46 CALM      30.21F
MILFORD        SUNNY     49  30  48 N12       30.24R
ST GEORGE      CLEAR     58  34  40 CALM      30.15F
HANKSVILLE     SUNNY     50  27  40 CALM      30.25S
BLANDING         N/A     48  24  38 SW5       30.25S

$$

REGIONAL REPORTS     COLORADO/ARIZONA

CITY           SKY/WX    TMP DP  RH WIND       PRES   REMARKS
CRAIG, CO      MOSUNNY   35  14  42 N9        30.35R WCI  28
GRAND JUNCTION SUNNY     49  25  39 NE16G23   30.24S
RIFLE, CO      SUNNY     44  25  47 NW16      30.25S
MONTROSE, CO   SUNNY     43  21  41 NW8       30.24S
CORTEZ, CO     SUNNY     46  26  45 SW8       30.16R
COLORADO CITY    N/A     59  30  33 NW3       30.19F
PAGE, AZ       SUNNY     51  31  46 E3        30.19S
GRAND CANYON   SUNNY     56  25  30 W8        30.20S
KINGMAN, AZ    SUNNY     65  32  29 N3        30.12F
FLAGSTAFF, AZ  SUNNY     57   8  14 VRB6      30.19S

$$

REGIONAL REPORTS    NEVADA/IDAHO/WYOMING

CITY           SKY/WX    TMP DP  RH WIND       PRES   REMARKS
LAS VEGAS, NV  MOSUNNY   66  35  31 CALM      30.11F
ELY, NY        MOSUNNY   49  26  41 MISG      30.23F
ELKO, NV       PTSUNNY   50  23  34 CALM      30.23F
POCATELLO, ID  SUNNY     44  30  57 N10       30.32F
BURLEY, ID     SUNNY     45  31  58 NE13G22   30.26F
FORT BRIDGER,    N/A     37  23  55 E13       30.35R WCI  29
EVANSTON, WY   SUNNY     37  25  61 E12       30.30R WCI  29
ROCK SPRINGS,  PTSUNNY   28  15  58 E8        30.37S WCI  20

$$




USA.gov is the U.S. government's official web portal to all federal, state and local government web resources and services.